User: anonymous   Login
Location: Taipo
(41.0000°S, 175.9500°E)
Time: 18:16:14
(UTC+00:00)
Language:

Cosmos 1624 Rocket - Orbit

View from above orbital plane
View from above orbital plane
View from above satellite
View from above satellite

Ground track
Ground track

The orbit data is extracted from the following two-line orbital elements,

1 15483U 85006B   24172.90880128  .00000337  00000-0  12205-3 0  9998
2 15483  74.0464 333.8986 0018071  41.7623  68.3014 14.37074621 63969
Epoch (UTC): 20 June 2024 21:48:40
Eccentricity: 0.0018071
inclination: 74.0464°
perigee height: 755 km
apogee height: 781 km
right ascension of ascending node: 333.8986°
argument of perigee: 41.7623°
revolutions per day: 14.37074621
mean anomaly at epoch: 68.3014°
orbit number at epoch: 6396

The dashed part of the orbit path shows where the satellite is in the earth's shadow,  

DLR